RH
80 80 84 83 78 77 73 61 51 50 54 59 61 61 61 60 56 56 55 49 45 42 40 39 39 39 39 40 43 44 44 44 44 45 42 37 37 38 38 44 49 54
79 80 82 79 76 75 69 58 52 55 61 65 65 63 61 60 57 56 53 48 46 43 40 42 42 42 42 39 38 39 39 38 36 39 41 39 38 37 38 42 46 52
75 77 75 70 70 73 68 60 59 63 65 65 64 61 59 58 56 54 51 50 49 43 40 44 45 43 42 37 37 40 41 39 35 37 41 42 42 38 37 42 47 51
73 75 71 65 64 68 68 65 65 65 64 63 62 59 59 57 56 55 54 53 50 44 42 46 45 43 41 39 40 42 42 41 37 36 37 37 39 38 36 40 45 48
72 74 69 64 60 59 62 66 66 65 65 64 61 59 60 59 59 60 58 55 52 47 43 42 42 42 42 42 43 43 43 42 39 37 35 34 34 34 34 36 39 41
68 68 65 62 59 55 56 62 64 65 65 62 58 58 61 62 64 63 62 59 54 48 44 41 40 41 44 45 44 44 44 43 40 38 37 37 34 32 34 39 39 39
64 66 64 61 59 55 53 56 61 65 66 62 59 59 63 66 67 66 66 64 57 49 45 42 41 40 43 47 47 46 46 45 44 42 41 42 40 37 39 43 43 42
63 66 67 65 60 55 53 55 60 64 66 62 59 61 66 70 69 68 69 65 57 51 47 46 46 43 44 48 47 44 46 47 47 45 44 45 45 45 44 43 42 42
66 65 68 67 63 57 54 55 57 60 61 59 59 63 67 70 69 68 69 64 56 51 50 52 52 46 45 48 45 43 45 48 49 49 49 48 47 47 46 44 40 37
70 69 69 69 67 62 57 55 55 56 57 57 59 63 65 67 67 67 68 62 53 50 51 53 52 48 48 48 46 46 47 48 51 53 54 53 51 49 47 45 42 39
75 74 73 72 71 68 63 59 57 58 58 57 60 62 62 63 65 65 64 58 53 53 53 54 52 50 50 48 46 47 48 50 54 57 58 59 58 55 53 51 48 45
81 80 78 74 72 71 68 64 62 63 63 59 59 61 59 60 63 64 62 59 57 57 56 55 53 51 51 50 48 49 51 53 56 60 62 62 63 62 60 59 57 53
83 83 80 77 75 73 72 68 66 68 67 63 62 62 59 60 63 64 64 62 61 60 58 55 54 53 53 53 54 55 55 56 58 62 64 63 64 66 65 64 64 61
86 85 82 81 81 78 76 73 70 69 69 67 67 66 64 63 64 65 65 65 63 61 60 57 56 57 56 56 60 61 59 58 60 62 64 63 64 67 68 68 69 68
89 87 85 85 85 83 81 79 75 71 67 66 69 71 70 68 66 66 66 66 65 63 60 59 61 61 59 60 63 64 63 63 63 65 66 66 65 67 70 72 74 73
90 89 88 89 89 87 86 84 82 75 66 64 69 73 73 71 69 68 67 66 65 63 60 59 61 60 59 61 63 63 64 65 66 68 70 69 69 70 72 74 76 76
88 89 89 90 90 90 89 88 87 82 73 69 71 73 72 73 73 71 67 65 65 65 63 61 61 61 62 63 64 65 67 68 68 68 69 71 73 74 74 75 77 77
86 87 89 90 90 90 91 92 90 86 80 77 75 72 69 71 73 73 70 67 68 71 67 61 60 63 65 66 65 66 68 69 69 69 70 72 74 75 75 76 76 75
86 85 86 87 87 89 91 92 92 88 81 76 74 72 70 70 71 71 70 70 72 73 67 60 59 62 65 66 66 67 68 69 71 72 72 72 73 74 76 77 77 74
87 86 85 84 84 86 87 87 89 87 81 78 76 75 75 74 72 72 72 71 71 69 65 61 61 61 62 62 63 63 64 66 69 70 68 68 69 71 75 77 76 72
86 85 84 83 82 81 80 80 81 81 80 81 82 80 79 80 79 79 78 73 69 67 66 63 61 59 58 59 59 59 58 60 62 63 63 63 64 65 71 75 74 71
82 83 82 81 80 78 77 78 80 81 82 84 85 84 85 86 86 85 83 79 75 74 72 65 58 56 55 55 56 55 54 54 54 54 55 58 61 63 66 70 71 70
77 78 78 78 78 78 78 80 81 82 83 84 84 86 88 89 88 86 85 84 83 81 77 67 60 57 55 52 51 50 49 48 47 47 49 52 56 60 65 68 69 70
72 72 73 74 76 78 79 80 82 83 86 86 84 83 85 85 85 85 85 87 86 83 79 72 67 63 58 54 51 48 47 46 46 48 50 52 56 61 65 68 69 68
74 73 73 73 74 75 76 77 79 82 85 84 81 80 80 81 82 84 85 85 83 80 78 74 69 66 63 60 58 56 56 57 58 61 63 66 69 70 71 71 70 69
76 75 74 74 73 72 71 71 72 74 75 75 75 75 75 76 77 79 80 78 76 75 74 73 71 70 70 68 68 68 68 69 71 73 73 74 77 77 76 75 75 75